Lid_Strength_Index
3 3 2 2 1 1 0 -0 -1 -1 -1 -1 -1 -1 -1 -1 -1 1 2 1 4 7 6 5 5 7 8 8 11 11 11 9 10 13 13 14 15 13 13 12 13 16 17 17 15 18 21 10 10 13 12 11 9 9
3 3 2 2 2 1 1 -0 -0 -1 -1 -1 -1 -1 -1 -1 -0 0 3 1 1 5 7 4 3 3 4 5 7 7 9 9 9 12 13 12 13 13 13 16 11 16 13 17 15 17 12 9 11 9 9 10 10 10
4 3 3 3 2 2 1 0 0 -0 -1 -1 -1 -1 -1 -1 -0 2 3 2 3 6 7 8 6 4 3 3 2 8 7 6 7 6 9 11 13 11 15 14 12 10 9 12 12 10 10 9 8 8 8 8 8 7
4 4 3 3 2 2 2 1 1 0 -0 -1 -1 -1 -1 -1 -0 2 4 3 3 5 9 9 4 5 3 3 3 3 6 5 6 8 11 11 12 10 13 12 13 12 11 12 12 11 10 9 9 8 7 7 7 7
4 4 4 3 3 2 2 2 1 1 0 -0 -1 -1 -1 -1 -0 2 2 3 2 6 9 10 5 3 3 4 5 5 5 7 8 10 12 12 11 11 12 12 13 12 12 13 14 10 10 9 8 6 7 7 6 7
4 4 4 3 3 3 3 2 2 1 0 -0 -0 -1 -1 -1 1 3 6 3 2 2 6 12 7 5 4 4 4 5 7 8 9 10 11 10 9 11 13 14 10 9 9 9 10 8 8 7 6 6 6 6 6 6
5 4 4 4 3 3 3 3 2 2 1 1 -0 -1 -1 -1 4 7 9 4 1 1 6 9 12 6 4 6 7 8 7 9 8 9 10 10 10 9 12 13 10 9 9 8 8 6 8 7 7 6 5 5 5 6
5 5 4 4 4 4 3 3 3 3 2 2 1 -1 -0 0 2 6 5 2 1 4 5 10 12 10 5 8 11 8 11 9 9 10 10 11 10 11 13 10 10 9 8 8 7 7 7 7 6 6 6 6 7 7
5 5 4 4 4 4 4 4 3 3 3 2 2 1 4 6 10 7 1 1 2 5 9 9 11 16 8 10 10 11 10 14 10 11 11 10 11 13 10 10 10 9 9 8 7 7 8 8 8 8 8 8 8 8
6 5 5 5 4 4 4 4 4 3 3 4 7 9 14 9 2 3 6 11 8 9 6 9 10 13 9 10 13 13 13 14 15 12 10 12 11 9 9 9 8 8 8 7 8 9 8 9 9 9 9 8 8 8
6 6 6 5 5 5 4 4 4 4 5 10 13 13 9 4 7 10 16 15 14 12 9 9 10 11 7 11 13 13 16 14 17 13 12 13 14 11 10 12 8 8 8 7 7 7 7 8 8 9 9 8 8 7
7 7 7 6 6 5 5 4 4 8 9 8 7 5 6 11 13 13 17 12 12 11 10 10 9 8 9 10 13 13 13 12 15 12 14 18 13 9 9 9 8 8 8 8 7 7 7 7 7 8 8 8 8 7
8 8 7 7 6 6 5 4 4 4 6 7 7 9 11 15 21 18 20 14 16 11 11 10 12 10 10 11 13 12 15 16 11 17 17 14 12 9 9 9 9 8 9 8 7 7 7 7 7 8 8 8 8 7
8 8 7 7 7 6 5 5 4 6 8 11 13 20 18 22 17 15 12 12 10 10 10 11 12 13 12 14 15 16 12 11 16 20 16 15 10 10 9 9 9 9 10 10 8 8 8 8 7 8 8 9 9 9
8 8 7 7 7 6 5 5 5 8 11 13 14 21 18 14 13 13 13 12 10 9 10 13 13 12 15 15 11 12 14 17 17 17 16 10 9 9 9 9 10 10 12 10 9 8 8 8 8 8 9 8 10 11
8 8 9 7 7 6 6 7 9 9 10 11 12 16 15 17 19 19 16 13 11 13 13 12 13 15 14 13 12 15 14 19 16 13 11 9 8 8 8 8 9 9 9 9 9 8 8 8 8 7 7 8 9 13
8 11 8 7 7 7 6 9 10 10 11 12 16 14 15 15 16 16 14 12 10 12 17 15 17 15 10 13 14 13 17 14 10 9 8 9 8 8 8 8 10 10 9 9 9 8 8 8 8 8 8 7 8 8
10 10 8 8 8 8 10 10 12 12 13 13 17 16 16 15 15 15 13 12 11 12 12 13 11 12 16 14 17 12 9 10 9 8 8 8 7 8 8 9 8 8 9 9 9 8 9 9 9 10 8 8 7 7
9 10 8 7 8 9 13 11 11 14 13 13 14 14 14 14 12 12 12 12 11 10 10 11 12 14 14 13 14 13 12 9 10 10 9 7 7 8 8 8 8 8 9 9 8 9 9 9 10 10 8 8 9 8
7 7 7 7 7 11 13 13 10 13 14 14 13 14 13 13 12 13 13 12 11 11 11 12 13 13 13 12 12 11 10 9 9 10 10 10 9 8 7 7 7 7 8 9 9 10 9 9 9 8 8 8 9 9
8 9 7 8 10 10 13 14 14 13 13 14 13 13 14 13 13 14 14 12 15 13 14 13 15 14 12 12 11 10 10 11 11 10 10 10 10 10 9 7 6 6 8 8 9 9 9 9 8 8 8 9 12 12
9 7 9 9 12 12 12 11 13 13 14 13 13 13 15 18 17 15 14 16 16 15 15 15 14 14 13 11 12 11 11 10 11 11 11 11 11 10 9 9 8 7 7 7 8 8 9 10 10 10 10 11 11 12
8 9 10 11 13 14 15 11 13 13 16 15 13 15 16 16 15 14 19 16 16 15 15 15 13 12 12 11 11 11 11 12 13 12 12 11 11 11 11 10 9 8 9 7 7 8 9 10 11 13 14 13 15 14
8 11 15 16 15 19 14 16 13 13 13 15 16 18 17 18 15 17 18 17 17 15 14 13 14 14 14 12 15 14 13 13 14 13 13 11 12 11 10 9 9 8 7 7 7 8 8 10 11 11 14 15 17 16
14 17 17 19 15 16 18 17 15 14 17 16 17 20 19 15 20 20 19 18 20 17 16 15 15 15 17 16 16 15 13 14 17 17 15 13 13 15 14 11 10 9 7 8 8 9 10 10 12 13 12 13 14 14
18 19 18 18 18 16 16 20 19 19 18 18 17 17 16 19 22 22 19 20 20 17 19 16 16 16 16 15 17 16 16 15 15 18 16 13 13 14 15 13 11 10 8 8 8 9 10 13 16 15 13 12 14 13
20 20 15 12 13 13 17 16 14 17 19 20 19 20 20 25 23 19 18 19 17 16 15 14 14 15 16 16 15 16 16 15 16 17 15 13 13 13 12 14 13 11 9 10 10 11 12 14 16 15 14 14 14 13
17 16 18 15 15 14 17 18 18 20 19 16 18 21 22 22 20 18 18 16 15 14 14 14 14 15 15 16 17 18 20 20 18 15 14 14 14 15 14 14 14 13 15 14 14 14 13 13 13 14 14 13 13 14
16 14 14 17 17 16 17 18 18 16 15 16 20 20 19 16 15 16 16 15 14 14 16 17 21 20 19 19 21 22 23 20 20 22 23 25 25 20 19 20 20 19 20 18 14 9 9 11 11 10 11 12 14 15
17 13 16 18 18 18 17 16 18 17 14 15 15 16 16 16 15 15 16 15 15 16 15 16 19 18 20 20 23 24 27 27 25 22 22 24 21 20 24 23 22 22 22 21 19 16 12 14 11 11 12 14 15 17
15 17 19 18 19 18 18 16 17 17 17 17 19 17 16 17 17 17 15 14 14 19 20 21 22 24 21 24 25 21 23 26 28 24 24 24 23 26 25 25 24 24 22 20 20 19 18 17 17 15 15 16 18 19
19 18 19 20 20 19 17 17 20 21 24 24 22 22 22 21 21 16 18 18 19 19 20 18 18 20 19 21 23 24 22 21 22 25 22 25 27 27 25 24 25 23 21 21 21 20 18 17 18 18 19 19 19 20
16 16 16 17 21 21 20 18 19 22 24 25 23 21 20 20 19 17 18 20 18 16 17 17 16 18 18 19 19 22 25 23 24 21 23 23 26 26 29 29 27 24 22 25 28 26 25 25 27 28 28 28 27 25